FHA12E LLBG-EDDF

Flight info

Callsign FHA12E
Flight time 3h 43m
Altitude 40000
Route SUVAS1E SUVAS DCT TEZAK L324 SAFTA DCT MAROS DCT LUTIG DCT BENEM UN127 RIKSO DCT DISOR DCT LONTA UL608 DOLEV DCT YUYUH DCT SIMBA DCT AKINI T161 DEBHI DEBHI1B
Aircraft A35K/H-SDE2E3GHIJ3J4J5LM1ORWXY/LB1D1

Departure

Time 2026-05-07 07:59
Airport Ben Gurion International Airport (LLBG)

Arrival

Time 2026-05-07 11:43
Airport Frankfurt Main Airport (EDDF)
Time Latitude Longitude Altitude Speed Heading
2026-05-07 07:18 32.00663 34.87379 122 ft 0 kts 180°
2026-05-07 07:48 32.00682 34.87379 121 ft 4 kts 180°
2026-05-07 07:49 32.00708 34.87379 121 ft 2 kts 180°
2026-05-07 07:49 32.00732 34.87383 121 ft 4 kts 220°
2026-05-07 07:49 32.00738 34.87404 121 ft 3 kts 291°
2026-05-07 07:49 32.00725 34.87432 121 ft 4 kts 303°
2026-05-07 07:50 32.00717 34.87447 121 ft 0 kts 302°
2026-05-07 07:53 32.00727 34.87427 121 ft 10 kts 302°
2026-05-07 07:53 32.00779 34.87350 121 ft 13 kts 331°
2026-05-07 07:53 32.00827 34.87400 125 ft 11 kts 97°
2026-05-07 07:53 32.00781 34.87487 122 ft 15 kts 122°
2026-05-07 07:54 32.00720 34.87605 122 ft 18 kts 121°
2026-05-07 07:54 32.00647 34.87745 122 ft 22 kts 122°
2026-05-07 07:54 32.00587 34.87867 122 ft 10 kts 104°
2026-05-07 07:54 32.00626 34.87943 121 ft 8 kts 36°
2026-05-07 07:55 32.00629 34.87946 121 ft 1 kts 36°
2026-05-07 07:55 32.00652 34.87964 121 ft 12 kts 32°
2026-05-07 07:55 32.00761 34.88042 122 ft 21 kts 32°
2026-05-07 07:55 32.00893 34.88139 121 ft 24 kts 32°
2026-05-07 07:56 32.01054 34.88256 123 ft 26 kts 31°
2026-05-07 07:56 32.01214 34.88372 124 ft 27 kts 33°
2026-05-07 07:56 32.01361 34.88524 122 ft 29 kts 50°
2026-05-07 07:56 32.01473 34.88728 121 ft 31 kts 70°
2026-05-07 07:57 32.01517 34.88977 121 ft 32 kts 79°
2026-05-07 07:57 32.01558 34.89240 123 ft 33 kts 79°
2026-05-07 07:57 32.01596 34.89482 121 ft 25 kts 79°
2026-05-07 07:57 32.01653 34.89680 121 ft 26 kts 43°
2026-05-07 07:58 32.01804 34.89772 121 ft 22 kts
2026-05-07 07:58 32.01837 34.89688 120 ft 12 kts 262°
2026-05-07 07:58 32.01792 34.89379 119 ft 78 kts 259°
2026-05-07 07:58 32.01647 34.88449 124 ft 150 kts 260°
2026-05-07 07:59 32.01409 34.87035 400 ft 190 kts 261°
2026-05-07 07:59 32.01093 34.85502 1095 ft 197 kts 261°
2026-05-07 07:59 32.00785 34.83889 1919 ft 211 kts 260°
2026-05-07 07:59 32.00457 34.82126 2532 ft 230 kts 259°
2026-05-07 08:00 32.00085 34.80215 3166 ft 250 kts 259°
2026-05-07 08:00 31.99672 34.78160 3889 ft 263 kts 257°
2026-05-07 08:00 31.99277 34.76042 4821 ft 268 kts 263°
2026-05-07 08:00 31.99436 34.73865 5728 ft 269 kts 288°
2026-05-07 08:01 32.00053 34.71811 6731 ft 271 kts 291°
2026-05-07 08:01 32.00726 34.69723 7481 ft 274 kts 291°
2026-05-07 08:01 32.01400 34.67607 8343 ft 276 kts 291°
2026-05-07 08:01 32.02067 34.65490 9486 ft 276 kts 290°
2026-05-07 08:02 32.02623 34.63310 10416 ft 283 kts 281°
2026-05-07 08:02 32.02852 34.60911 10869 ft 307 kts 274°
2026-05-07 08:02 32.02978 34.58302 11256 ft 330 kts 274°
2026-05-07 08:02 32.03108 34.55521 11693 ft 349 kts 274°
2026-05-07 08:03 32.03252 34.52628 12392 ft 357 kts 274°
2026-05-07 08:03 32.03401 34.49729 13193 ft 362 kts 274°
2026-05-07 08:03 32.03554 34.46749 14022 ft 366 kts 274°
2026-05-07 08:03 32.03711 34.43731 14728 ft 371 kts 274°
2026-05-07 08:04 32.03883 34.40685 15494 ft 374 kts 274°
2026-05-07 08:04 32.04060 34.37615 16282 ft 377 kts 274°
2026-05-07 08:04 32.04237 34.34530 17098 ft 380 kts 274°
2026-05-07 08:04 32.04416 34.31404 17924 ft 383 kts 274°
2026-05-07 08:05 32.04594 34.28259 18699 ft 386 kts 274°
2026-05-07 08:05 32.04814 34.25089 19358 ft 390 kts 277°
2026-05-07 08:05 32.05492 34.22029 20001 ft 395 kts 292°
2026-05-07 08:05 32.06780 34.19155 20712 ft 399 kts 300°
2026-05-07 08:06 32.08222 34.16347 21417 ft 403 kts 301°
2026-05-07 08:06 32.09685 34.13512 22126 ft 407 kts 301°
2026-05-07 08:06 32.11157 34.10640 22847 ft 411 kts 300°
2026-05-07 08:06 32.12639 34.07737 23578 ft 415 kts 300°
2026-05-07 08:07 32.14134 34.04800 24187 ft 420 kts 300°
2026-05-07 08:07 32.15639 34.01837 24781 ft 424 kts 300°
2026-05-07 08:07 32.17143 33.98872 25370 ft 428 kts 300°
2026-05-07 08:07 32.18754 33.95898 25962 ft 432 kts 303°
2026-05-07 08:08 32.20497 33.92989 26600 ft 435 kts 305°
2026-05-07 08:08 32.22294 33.90108 27241 ft 438 kts 305°
2026-05-07 08:08 32.24116 33.87205 27806 ft 442 kts 305°
2026-05-07 08:08 32.25947 33.84257 28383 ft 446 kts 305°
2026-05-07 08:09 32.27773 33.81280 29003 ft 449 kts 304°
2026-05-07 08:09 32.29598 33.78272 29617 ft 451 kts 304°
2026-05-07 08:09 32.31426 33.75237 30118 ft 456 kts 304°
2026-05-07 08:09 32.33241 33.72209 30551 ft 460 kts 304°
2026-05-07 08:10 32.35097 33.69109 30970 ft 463 kts 304°
2026-05-07 08:10 32.36959 33.65996 31403 ft 465 kts 304°
2026-05-07 08:10 32.38834 33.62861 31834 ft 468 kts 304°
2026-05-07 08:10 32.40716 33.59713 32228 ft 471 kts 303°
2026-05-07 08:11 32.42609 33.56545 32670 ft 471 kts 303°
2026-05-07 08:11 32.44498 33.53381 33237 ft 469 kts 303°
2026-05-07 08:11 32.46379 33.50231 33789 ft 468 kts 303°
2026-05-07 08:11 32.48232 33.47124 34277 ft 467 kts 303°
2026-05-07 08:12 32.50100 33.43989 34680 ft 466 kts 303°
2026-05-07 08:12 32.51972 33.40842 35058 ft 466 kts 303°
2026-05-07 08:12 32.53837 33.37706 35442 ft 466 kts 303°
2026-05-07 08:12 32.55702 33.34567 35813 ft 466 kts 303°
2026-05-07 08:13 32.57568 33.31423 36165 ft 466 kts 303°
2026-05-07 08:13 32.59431 33.28282 36511 ft 466 kts 303°
2026-05-07 08:13 32.60666 33.26198 36730 ft 466 kts 303°
2026-05-07 08:13 32.63135 33.22030 37171 ft 466 kts 303°
2026-05-07 08:14 32.64997 33.18883 37501 ft 466 kts 303°
2026-05-07 08:14 32.66859 33.15734 37830 ft 466 kts 303°
2026-05-07 08:14 32.68717 33.12588 38178 ft 465 kts 303°
2026-05-07 08:14 32.70571 33.09447 38510 ft 464 kts 303°
2026-05-07 08:15 32.72426 33.06301 38808 ft 464 kts 303°
2026-05-07 08:15 32.73650 33.04224 38974 ft 464 kts 303°
2026-05-07 08:15 32.75501 33.01080 39212 ft 464 kts 303°
2026-05-07 08:15 32.77947 32.96922 39494 ft 463 kts 303°
2026-05-07 08:16 32.79790 32.93785 39700 ft 463 kts 303°
2026-05-07 08:16 32.81634 32.90646 39904 ft 463 kts 303°
2026-05-07 08:16 32.82857 32.88561 40034 ft 463 kts 303°
2026-05-07 08:16 32.85325 32.84351 40140 ft 464 kts 303°
2026-05-07 08:17 32.86546 32.82268 40144 ft 464 kts 303°
2026-05-07 08:17 32.90229 32.75973 40143 ft 463 kts 303°
2026-05-07 08:18 32.94505 32.68654 40146 ft 463 kts 303°
2026-05-07 08:18 32.97586 32.63370 40146 ft 463 kts 303°
2026-05-07 08:19 33.01235 32.57102 40149 ft 463 kts 303°
2026-05-07 08:19 33.04901 32.50795 40148 ft 463 kts 303°
2026-05-07 08:20 33.08565 32.44482 40146 ft 463 kts 303°
2026-05-07 08:20 33.12222 32.38168 40151 ft 463 kts 303°
2026-05-07 08:21 33.15854 32.31887 40153 ft 463 kts 303°
2026-05-07 08:21 33.19503 32.25566 40152 ft 462 kts 303°
2026-05-07 08:22 33.23139 32.19256 40154 ft 461 kts 303°
2026-05-07 08:22 33.26771 32.12943 40159 ft 461 kts 303°
2026-05-07 08:23 33.30375 32.06668 40161 ft 461 kts 303°
2026-05-07 08:23 33.33996 32.00353 40160 ft 460 kts 303°
2026-05-07 08:24 33.37610 31.94039 40159 ft 460 kts 303°
2026-05-07 08:24 33.41216 31.87729 40154 ft 459 kts 303°
2026-05-07 08:25 33.45232 31.81846 40165 ft 462 kts 315°
2026-05-07 08:25 33.50522 31.77463 40161 ft 467 kts 332°
2026-05-07 08:26 33.59778 31.73682 40159 ft 469 kts 340°
2026-05-07 08:26 33.66046 31.71476 40160 ft 469 kts 340°
2026-05-07 08:27 33.72256 31.69266 40162 ft 469 kts 340°
2026-05-07 08:27 33.78402 31.66727 40163 ft 465 kts 332°
2026-05-07 08:28 33.83832 31.62610 40163 ft 460 kts 321°
2026-05-07 08:28 33.88893 31.57916 40162 ft 459 kts 319°
2026-05-07 08:29 33.93859 31.53172 40162 ft 459 kts 319°
2026-05-07 08:29 33.98860 31.48405 40164 ft 458 kts 320°
2026-05-07 08:30 34.03855 31.43663 40165 ft 457 kts 320°
2026-05-07 08:30 34.08848 31.38925 40165 ft 456 kts 320°
2026-05-07 08:31 34.13840 31.34182 40162 ft 456 kts 320°
2026-05-07 08:31 34.18792 31.29468 40165 ft 457 kts 320°
2026-05-07 08:32 34.23777 31.24715 40165 ft 456 kts 320°
2026-05-07 08:32 34.28752 31.19964 40164 ft 455 kts 320°
2026-05-07 08:33 34.33708 31.15225 40165 ft 454 kts 320°
2026-05-07 08:33 34.38620 31.10519 40165 ft 454 kts 320°
2026-05-07 08:34 34.43565 31.05775 40166 ft 453 kts 320°
2026-05-07 08:34 34.48508 31.01026 40165 ft 453 kts 320°
2026-05-07 08:35 34.53441 30.96278 40170 ft 453 kts 320°
2026-05-07 08:35 34.58368 30.91529 40167 ft 451 kts 320°
2026-05-07 08:36 34.63238 30.86832 40168 ft 450 kts 320°
2026-05-07 08:36 34.68161 30.82126 40168 ft 450 kts 320°
2026-05-07 08:37 34.73086 30.77428 40176 ft 450 kts 320°
2026-05-07 08:37 34.77973 30.72753 40170 ft 450 kts 320°
2026-05-07 08:38 34.82886 30.68041 40170 ft 450 kts 320°
2026-05-07 08:38 34.87793 30.63325 40170 ft 449 kts 320°
2026-05-07 08:39 34.92702 30.58601 40171 ft 449 kts 320°
2026-05-07 08:39 34.97604 30.53875 40153 ft 450 kts 320°
2026-05-07 08:40 35.02476 30.49172 40181 ft 449 kts 320°
2026-05-07 08:40 35.07377 30.44434 40165 ft 449 kts 320°
2026-05-07 08:41 35.12266 30.39699 40163 ft 449 kts 320°
2026-05-07 08:41 35.17150 30.34961 40168 ft 447 kts 320°
2026-05-07 08:42 35.21983 30.30266 40170 ft 446 kts 320°
2026-05-07 08:42 35.26846 30.25535 40168 ft 446 kts 320°
2026-05-07 08:43 35.31704 30.20800 40174 ft 446 kts 320°
2026-05-07 08:43 35.36560 30.16060 40170 ft 446 kts 320°
2026-05-07 08:44 35.41379 30.11349 40170 ft 446 kts 320°
2026-05-07 08:44 35.46220 30.06608 40168 ft 445 kts 320°
2026-05-07 08:45 35.51044 30.01877 40172 ft 444 kts 320°
2026-05-07 08:45 35.55847 29.97112 40172 ft 444 kts 319°
2026-05-07 08:46 35.60555 29.92213 40168 ft 444 kts 319°
2026-05-07 08:46 35.65218 29.87322 40168 ft 444 kts 319°
2026-05-07 08:47 35.69928 29.82408 40163 ft 444 kts 319°
2026-05-07 08:47 35.74636 29.77508 40166 ft 443 kts 319°
2026-05-07 08:48 35.79332 29.72617 40165 ft 442 kts 319°
2026-05-07 08:48 35.83996 29.67752 40166 ft 442 kts 319°
2026-05-07 08:49 35.88691 29.62845 40166 ft 442 kts 319°
2026-05-07 08:49 35.93381 29.57935 40180 ft 442 kts 319°
2026-05-07 08:50 35.98074 29.53014 40166 ft 442 kts 319°
2026-05-07 08:50 36.02732 29.48121 40162 ft 443 kts 319°
2026-05-07 08:51 36.07420 29.43190 40164 ft 443 kts 319°
2026-05-07 08:51 36.12105 29.38253 40162 ft 443 kts 319°
2026-05-07 08:52 36.16789 29.33310 40164 ft 443 kts 319°
2026-05-07 08:52 36.21446 29.28401 40161 ft 443 kts 319°
2026-05-07 08:53 36.26149 29.23477 40160 ft 443 kts 319°
2026-05-07 08:53 36.30856 29.18546 40160 ft 443 kts 319°
2026-05-07 08:54 36.35563 29.13607 40158 ft 443 kts 319°
2026-05-07 08:54 36.40232 29.08686 40155 ft 443 kts 319°
2026-05-07 08:55 36.44929 29.03724 40152 ft 443 kts 319°
2026-05-07 08:55 36.49622 28.98762 40152 ft 443 kts 319°
2026-05-07 08:56 36.54317 28.93790 40151 ft 443 kts 319°
2026-05-07 08:56 36.58976 28.88850 40156 ft 443 kts 319°
2026-05-07 08:57 36.63660 28.83875 40158 ft 443 kts 319°
2026-05-07 08:57 36.68343 28.78892 40154 ft 443 kts 319°
2026-05-07 08:58 36.73031 28.73918 40159 ft 443 kts 319°
2026-05-07 08:58 36.77695 28.68977 40159 ft 443 kts 319°
2026-05-07 08:59 36.82386 28.63996 40151 ft 442 kts 319°
2026-05-07 08:59 36.87064 28.59018 40153 ft 442 kts 319°
2026-05-07 09:00 36.91740 28.54036 40160 ft 442 kts 319°
2026-05-07 09:00 36.96380 28.49082 40159 ft 441 kts 319°
2026-05-07 09:01 37.01043 28.44096 40158 ft 441 kts 319°
2026-05-07 09:01 37.05705 28.39101 40153 ft 441 kts 319°
2026-05-07 09:02 37.10365 28.34102 40158 ft 440 kts 319°
2026-05-07 09:02 37.14983 28.29093 40160 ft 439 kts 319°
2026-05-07 09:03 37.19561 28.24125 40156 ft 438 kts 319°
2026-05-07 09:03 37.24186 28.19139 40159 ft 438 kts 319°
2026-05-07 09:04 37.28816 28.14144 40157 ft 438 kts 319°
2026-05-07 09:04 37.33407 28.09178 40157 ft 438 kts 319°
2026-05-07 09:05 37.38007 28.04153 40153 ft 438 kts 318°
2026-05-07 09:05 37.42591 27.99131 40161 ft 436 kts 318°
2026-05-07 09:06 37.47169 27.94114 40153 ft 437 kts 318°
2026-05-07 09:06 37.51722 27.89121 40154 ft 437 kts 318°
2026-05-07 09:07 37.56305 27.84087 40156 ft 437 kts 318°
2026-05-07 09:07 37.60886 27.79046 40159 ft 437 kts 318°
2026-05-07 09:08 37.65470 27.73994 40156 ft 437 kts 318°
2026-05-07 09:08 37.70018 27.68972 40158 ft 437 kts 318°
2026-05-07 09:09 37.74596 27.63908 40159 ft 437 kts 318°
2026-05-07 09:09 37.79172 27.58839 40155 ft 438 kts 318°
2026-05-07 09:10 37.83754 27.53754 40154 ft 438 kts 318°
2026-05-07 09:10 37.88333 27.48664 40155 ft 438 kts 318°
2026-05-07 09:11 37.92891 27.43636 40156 ft 437 kts 317°
2026-05-07 09:11 37.97488 27.38603 40153 ft 436 kts 317°
2026-05-07 09:12 38.02073 27.33572 40163 ft 436 kts 317°
2026-05-07 09:12 38.06663 27.28519 40151 ft 437 kts 317°
2026-05-07 09:13 38.11216 27.23495 40151 ft 437 kts 317°
2026-05-07 09:13 38.15803 27.18425 40156 ft 437 kts 317°
2026-05-07 09:14 38.20381 27.13356 40157 ft 436 kts 317°
2026-05-07 09:14 38.24959 27.08279 40156 ft 436 kts 317°
2026-05-07 09:15 38.29497 27.03236 40157 ft 436 kts 317°
2026-05-07 09:15 38.34075 26.98154 40156 ft 437 kts 317°
2026-05-07 09:16 38.38677 26.93079 40148 ft 437 kts 317°
2026-05-07 09:16 38.43279 26.88000 40148 ft 437 kts 317°
2026-05-07 09:17 38.47847 26.82944 40146 ft 438 kts 317°
2026-05-07 09:17 38.52454 26.77835 40146 ft 439 kts 317°
2026-05-07 09:18 38.57063 26.72712 40145 ft 439 kts 317°
2026-05-07 09:18 38.61669 26.67586 40148 ft 439 kts 317°
2026-05-07 09:19 38.66243 26.62485 40147 ft 440 kts 317°
2026-05-07 09:19 38.70851 26.57336 40144 ft 440 kts 317°
2026-05-07 09:20 38.75468 26.52170 40146 ft 442 kts 317°
2026-05-07 09:20 38.80099 26.46979 40150 ft 443 kts 317°
2026-05-07 09:21 38.84516 26.41576 40151 ft 441 kts 311°
2026-05-07 09:21 38.88648 26.35747 40157 ft 441 kts 310°
2026-05-07 09:22 38.92729 26.29859 40153 ft 442 kts 310°
2026-05-07 09:22 38.96808 26.23950 40142 ft 442 kts 310°
2026-05-07 09:23 39.00898 26.18027 40143 ft 443 kts 310°
2026-05-07 09:23 39.04969 26.12128 40143 ft 444 kts 310°
2026-05-07 09:24 39.09062 26.06187 40143 ft 444 kts 310°
2026-05-07 09:24 39.13156 26.00235 40139 ft 444 kts 310°
2026-05-07 09:25 39.17247 25.94273 40140 ft 444 kts 310°
2026-05-07 09:25 39.21309 25.88343 40145 ft 445 kts 310°
2026-05-07 09:26 39.25410 25.82346 40135 ft 446 kts 310°
2026-05-07 09:26 39.29509 25.76339 40134 ft 446 kts 310°
2026-05-07 09:27 39.33583 25.70357 40132 ft 446 kts 310°
2026-05-07 09:28 39.39727 25.61315 40129 ft 446 kts 309°
2026-05-07 09:28 39.43822 25.55272 40129 ft 447 kts 309°
2026-05-07 09:29 39.47921 25.49213 40130 ft 447 kts 309°
2026-05-07 09:29 39.52016 25.43148 40137 ft 447 kts 309°
2026-05-07 09:30 39.56083 25.37112 40129 ft 448 kts 309°
2026-05-07 09:30 39.60178 25.31023 40125 ft 448 kts 309°
2026-05-07 09:31 39.64278 25.24915 40118 ft 449 kts 309°
2026-05-07 09:31 39.68373 25.18802 40130 ft 449 kts 309°
2026-05-07 09:32 39.72437 25.12723 40128 ft 449 kts 309°
2026-05-07 09:32 39.76528 25.06593 40127 ft 449 kts 309°
2026-05-07 09:33 39.80612 25.00461 40131 ft 449 kts 309°
2026-05-07 09:33 39.84692 24.94321 40136 ft 449 kts 308°
2026-05-07 09:34 39.88756 24.88195 40135 ft 450 kts 308°
2026-05-07 09:34 39.92846 24.82016 40133 ft 450 kts 308°
2026-05-07 09:35 39.96933 24.75831 40132 ft 450 kts 308°
2026-05-07 09:35 40.01014 24.69641 40119 ft 450 kts 308°
2026-05-07 09:36 40.05066 24.63484 40117 ft 450 kts 308°
2026-05-07 09:36 40.09139 24.57282 40118 ft 450 kts 308°
2026-05-07 09:37 40.13212 24.51068 40114 ft 450 kts 308°
2026-05-07 09:37 40.17279 24.44850 40115 ft 450 kts 308°
2026-05-07 09:38 40.21342 24.38625 40117 ft 450 kts 308°
2026-05-07 09:38 40.25381 24.32425 40134 ft 451 kts 308°
2026-05-07 09:39 40.29450 24.26167 40135 ft 451 kts 308°
2026-05-07 09:39 40.33515 24.19902 40136 ft 451 kts 308°
2026-05-07 09:40 40.37551 24.13669 40132 ft 451 kts 308°
2026-05-07 09:40 40.41610 24.07388 40134 ft 451 kts 308°
2026-05-07 09:41 40.45664 24.01102 40130 ft 451 kts 308°
2026-05-07 09:41 40.49722 23.94796 40130 ft 452 kts 308°
2026-05-07 09:42 40.53774 23.88487 40126 ft 452 kts 308°
2026-05-07 09:42 40.57799 23.82206 40126 ft 452 kts 307°
2026-05-07 09:43 40.61847 23.75878 40123 ft 452 kts 307°
2026-05-07 09:43 40.65892 23.69542 40126 ft 452 kts 307°
2026-05-07 09:44 40.69934 23.63196 40119 ft 452 kts 307°
2026-05-07 09:44 40.73938 23.56895 40125 ft 452 kts 307°
2026-05-07 09:45 40.77973 23.50534 40126 ft 452 kts 307°
2026-05-07 09:45 40.82007 23.44161 40122 ft 452 kts 307°
2026-05-07 09:46 40.86036 23.37786 40125 ft 451 kts 307°
2026-05-07 09:46 40.90017 23.31471 40122 ft 450 kts 307°
2026-05-07 09:47 40.94022 23.25104 40125 ft 450 kts 307°
2026-05-07 09:47 40.98022 23.18732 40125 ft 450 kts 306°
2026-05-07 09:48 41.02019 23.12350 40128 ft 450 kts 306°
2026-05-07 09:48 41.05984 23.06010 40144 ft 449 kts 306°
2026-05-07 09:49 41.09967 22.99624 40139 ft 450 kts 306°
2026-05-07 09:49 41.13952 22.93221 40134 ft 450 kts 306°
2026-05-07 09:50 41.17932 22.86815 40143 ft 450 kts 306°
2026-05-07 09:50 41.21885 22.80437 40139 ft 450 kts 306°
2026-05-07 09:51 41.25867 22.74022 40142 ft 451 kts 306°
2026-05-07 09:51 41.30073 22.67799 40144 ft 454 kts 309°
2026-05-07 09:52 41.34376 22.61653 40147 ft 454 kts 309°
2026-05-07 09:52 41.38620 22.55511 40151 ft 454 kts 308°
2026-05-07 09:53 41.42860 22.49294 40155 ft 453 kts 308°
2026-05-07 09:53 41.47090 22.43059 40156 ft 454 kts 308°
2026-05-07 09:54 41.51332 22.36791 40151 ft 456 kts 308°
2026-05-07 09:54 41.55579 22.30507 40154 ft 456 kts 308°
2026-05-07 09:55 41.59796 22.24257 40151 ft 456 kts 308°
2026-05-07 09:55 41.64033 22.17964 40162 ft 455 kts 308°
2026-05-07 09:56 41.68265 22.11665 40154 ft 455 kts 308°
2026-05-07 09:56 41.72493 22.05357 40148 ft 456 kts 308°
2026-05-07 09:57 41.76695 21.99074 40152 ft 456 kts 308°
2026-05-07 09:57 41.80926 21.92734 40152 ft 456 kts 308°
2026-05-07 09:58 41.85152 21.86391 40155 ft 456 kts 308°
2026-05-07 09:58 41.89374 21.80038 40161 ft 456 kts 308°
2026-05-07 09:59 41.93573 21.73706 40162 ft 459 kts 308°
2026-05-07 09:59 41.97827 21.67275 40156 ft 461 kts 308°
2026-05-07 10:00 42.02084 21.60829 40154 ft 461 kts 307°
2026-05-07 10:00 42.06341 21.54370 40153 ft 461 kts 307°
2026-05-07 10:01 42.10567 21.47944 40148 ft 461 kts 307°
2026-05-07 10:01 42.14810 21.41476 40145 ft 461 kts 307°
2026-05-07 10:02 42.19027 21.34967 40144 ft 460 kts 306°
2026-05-07 10:02 42.23166 21.28371 40143 ft 461 kts 306°
2026-05-07 10:03 42.27271 21.21799 40144 ft 461 kts 306°
2026-05-07 10:03 42.31415 21.15183 40145 ft 461 kts 306°
2026-05-07 10:04 42.35569 21.08554 40150 ft 464 kts 306°
2026-05-07 10:04 42.39741 21.01882 40153 ft 465 kts 306°
2026-05-07 10:05 42.43891 20.95231 40152 ft 466 kts 306°
2026-05-07 10:05 42.48066 20.88526 40161 ft 466 kts 306°
2026-05-07 10:06 42.52236 20.81811 40153 ft 466 kts 306°
2026-05-07 10:06 42.56410 20.75074 40143 ft 467 kts 306°
2026-05-07 10:07 42.60565 20.68352 40136 ft 468 kts 306°
2026-05-07 10:07 42.64747 20.61573 40127 ft 468 kts 306°
2026-05-07 10:08 42.68925 20.54786 40124 ft 468 kts 306°
2026-05-07 10:08 42.73102 20.47984 40141 ft 468 kts 306°
2026-05-07 10:09 42.77245 20.41222 40122 ft 468 kts 306°
2026-05-07 10:09 42.81412 20.34404 40121 ft 468 kts 306°
2026-05-07 10:10 42.85573 20.27580 40114 ft 468 kts 306°
2026-05-07 10:10 42.89734 20.20741 40110 ft 468 kts 306°
2026-05-07 10:11 42.93887 20.13903 40104 ft 468 kts 306°
2026-05-07 10:11 42.98010 20.07093 40105 ft 468 kts 306°
2026-05-07 10:12 43.02148 20.00243 40097 ft 467 kts 306°
2026-05-07 10:12 43.06285 19.93380 40095 ft 467 kts 306°
2026-05-07 10:13 43.10418 19.86510 40089 ft 468 kts 305°
2026-05-07 10:13 43.14517 19.79679 40097 ft 468 kts 305°
2026-05-07 10:14 43.18645 19.72784 40083 ft 468 kts 305°
2026-05-07 10:14 43.22776 19.65898 40086 ft 469 kts 307°
2026-05-07 10:15 43.27516 19.59683 40082 ft 472 kts 314°
2026-05-07 10:15 43.32463 19.53817 40085 ft 474 kts 315°
2026-05-07 10:16 43.37487 19.47942 40088 ft 474 kts 315°
2026-05-07 10:16 43.42507 19.42046 40078 ft 475 kts 315°
2026-05-07 10:17 43.47526 19.36119 40078 ft 475 kts 315°
2026-05-07 10:17 43.52505 19.30217 40072 ft 475 kts 315°
2026-05-07 10:18 43.57510 19.24270 40080 ft 475 kts 315°
2026-05-07 10:18 43.62522 19.18302 40072 ft 476 kts 315°
2026-05-07 10:19 43.67530 19.12326 40069 ft 476 kts 315°
2026-05-07 10:19 43.72504 19.06378 40069 ft 476 kts 315°
2026-05-07 10:20 43.77511 19.00378 40085 ft 476 kts 315°
2026-05-07 10:20 43.82516 18.94364 40056 ft 477 kts 315°
2026-05-07 10:21 43.87525 18.88331 40073 ft 477 kts 315°
2026-05-07 10:21 43.92504 18.82322 40070 ft 477 kts 315°
2026-05-07 10:22 43.97508 18.76268 40071 ft 477 kts 315°
2026-05-07 10:22 44.02511 18.70201 40065 ft 478 kts 315°
2026-05-07 10:23 44.07515 18.64118 40061 ft 478 kts 315°
2026-05-07 10:23 44.12491 18.58056 40060 ft 478 kts 315°
2026-05-07 10:24 44.17489 18.51952 40061 ft 478 kts 315°
2026-05-07 10:24 44.22492 18.45829 40063 ft 478 kts 314°
2026-05-07 10:25 44.27487 18.39700 40064 ft 478 kts 314°
2026-05-07 10:25 44.32477 18.33563 40062 ft 478 kts 314°
2026-05-07 10:26 44.37436 18.27450 40057 ft 478 kts 314°
2026-05-07 10:26 44.42421 18.21293 40063 ft 478 kts 314°
2026-05-07 10:27 44.47407 18.15117 40053 ft 479 kts 314°
2026-05-07 10:27 44.52389 18.08931 40057 ft 479 kts 314°
2026-05-07 10:28 44.57337 18.02774 40050 ft 479 kts 314°
2026-05-07 10:28 44.62316 17.96563 40052 ft 479 kts 314°
2026-05-07 10:29 44.67290 17.90343 40045 ft 479 kts 314°
2026-05-07 10:29 44.72229 17.84152 40044 ft 479 kts 314°
2026-05-07 10:30 44.79679 17.74787 40046 ft 479 kts 314°
2026-05-07 10:30 44.84650 17.68519 40047 ft 480 kts 314°
2026-05-07 10:31 44.89629 17.62224 40044 ft 481 kts 314°
2026-05-07 10:31 44.94568 17.55967 40043 ft 480 kts 314°
2026-05-07 10:32 44.99540 17.49652 40043 ft 481 kts 314°
2026-05-07 10:32 45.04511 17.43324 40048 ft 481 kts 313°
2026-05-07 10:33 45.09483 17.36978 40045 ft 482 kts 313°
2026-05-07 10:33 45.14452 17.30619 40048 ft 482 kts 313°
2026-05-07 10:34 45.19389 17.24288 40048 ft 482 kts 313°
2026-05-07 10:34 45.24356 17.17901 40057 ft 482 kts 313°
2026-05-07 10:35 45.29324 17.11497 40046 ft 484 kts 313°
2026-05-07 10:35 45.34305 17.05060 40061 ft 484 kts 313°
2026-05-07 10:36 45.39255 16.98650 40043 ft 484 kts 313°
2026-05-07 10:36 45.44236 16.92183 40062 ft 484 kts 313°
2026-05-07 10:37 45.49207 16.85712 40045 ft 484 kts 313°
2026-05-07 10:37 45.54172 16.79231 40044 ft 484 kts 313°
2026-05-07 10:38 45.59098 16.72786 40038 ft 484 kts 313°
2026-05-07 10:38 45.64055 16.66284 40040 ft 484 kts 313°
2026-05-07 10:39 45.69006 16.59773 40039 ft 483 kts 312°
2026-05-07 10:39 45.73951 16.53256 40039 ft 483 kts 312°
2026-05-07 10:40 45.78851 16.46780 40031 ft 483 kts 312°
2026-05-07 10:40 45.83777 16.40253 40028 ft 482 kts 312°
2026-05-07 10:41 45.88700 16.33714 40039 ft 482 kts 312°
2026-05-07 10:41 45.93583 16.27213 40026 ft 482 kts 312°
2026-05-07 10:42 45.98493 16.20660 40023 ft 482 kts 312°
2026-05-07 10:42 46.03399 16.14094 40030 ft 482 kts 312°
2026-05-07 10:43 46.08306 16.07510 40027 ft 483 kts 312°
2026-05-07 10:43 46.13222 16.00896 40030 ft 484 kts 312°
2026-05-07 10:44 46.18109 15.94308 40014 ft 484 kts 312°
2026-05-07 10:44 46.23021 15.87665 40017 ft 484 kts 311°
2026-05-07 10:45 46.27932 15.81008 40007 ft 484 kts 311°
2026-05-07 10:45 46.32840 15.74337 40008 ft 485 kts 312°
2026-05-07 10:46 46.37723 15.67684 39998 ft 485 kts 311°
2026-05-07 10:46 46.42634 15.60975 39965 ft 485 kts 311°
2026-05-07 10:47 46.47537 15.54261 39967 ft 485 kts 311°
2026-05-07 10:47 46.52435 15.47535 39977 ft 485 kts 311°
2026-05-07 10:48 46.57304 15.40829 39977 ft 486 kts 311°
2026-05-07 10:48 46.62210 15.34060 39962 ft 486 kts 311°
2026-05-07 10:49 46.67110 15.27276 39963 ft 487 kts 311°
2026-05-07 10:49 46.72012 15.20472 39959 ft 487 kts 311°
2026-05-07 10:50 46.76877 15.13700 39962 ft 487 kts 311°
2026-05-07 10:50 46.81775 15.06864 39960 ft 488 kts 311°
2026-05-07 10:51 46.86678 15.00010 39956 ft 488 kts 311°
2026-05-07 10:51 46.91585 14.93131 39951 ft 488 kts 311°
2026-05-07 10:52 46.96483 14.86246 39959 ft 488 kts 311°
2026-05-07 10:52 47.01340 14.79397 39950 ft 488 kts 311°
2026-05-07 10:53 47.06226 14.72488 39959 ft 488 kts 311°
2026-05-07 10:53 47.11113 14.65560 39965 ft 489 kts 311°
2026-05-07 10:54 47.15967 14.58661 39964 ft 490 kts 311°
2026-05-07 10:54 47.20859 14.51691 39967 ft 491 kts 311°
2026-05-07 10:55 47.25763 14.44684 39965 ft 491 kts 311°
2026-05-07 10:55 47.30656 14.37671 39967 ft 491 kts 311°
2026-05-07 10:56 47.35516 14.30679 39969 ft 491 kts 311°
2026-05-07 10:56 47.40412 14.23625 39986 ft 492 kts 311°
2026-05-07 10:57 47.45301 14.16571 39988 ft 491 kts 311°
2026-05-07 10:57 47.50185 14.09502 39982 ft 491 kts 311°
2026-05-07 10:58 47.55023 14.02468 39987 ft 491 kts 311°
2026-05-07 10:58 47.59888 13.95377 39996 ft 491 kts 311°
2026-05-07 10:59 47.64743 13.88285 39997 ft 490 kts 311°
2026-05-07 10:59 47.69596 13.81179 40001 ft 490 kts 311°
2026-05-07 11:00 47.74413 13.74106 40004 ft 490 kts 311°
2026-05-07 11:00 47.79261 13.66967 40004 ft 490 kts 311°
2026-05-07 11:01 47.84099 13.59819 40012 ft 490 kts 311°
2026-05-07 11:01 47.88938 13.52650 40003 ft 491 kts 311°
2026-05-07 11:02 47.93776 13.45466 40005 ft 491 kts 311°
2026-05-07 11:02 47.98611 13.38265 40004 ft 491 kts 311°
2026-05-07 11:03 48.03408 13.31101 40002 ft 491 kts 311°
2026-05-07 11:03 48.08235 13.23872 40001 ft 491 kts 311°
2026-05-07 11:04 48.13060 13.16625 39995 ft 491 kts 311°
2026-05-07 11:04 48.17877 13.09369 40000 ft 491 kts 311°
2026-05-07 11:05 48.22659 13.02147 39993 ft 491 kts 311°
2026-05-07 11:05 48.27327 12.94686 40009 ft 489 kts 308°
2026-05-07 11:06 48.31775 12.86974 39995 ft 488 kts 307°
2026-05-07 11:06 48.36224 12.79258 39994 ft 488 kts 307°
2026-05-07 11:07 48.40673 12.71629 39997 ft 489 kts 308°
2026-05-07 11:07 48.45171 12.63943 39994 ft 489 kts 308°
2026-05-07 11:08 48.49663 12.56253 39995 ft 489 kts 308°
2026-05-07 11:08 48.54145 12.48549 39992 ft 489 kts 308°
2026-05-07 11:09 48.58597 12.40873 39992 ft 489 kts 308°
2026-05-07 11:09 48.63068 12.33142 40000 ft 489 kts 308°
2026-05-07 11:10 48.67537 12.25391 40009 ft 489 kts 308°
2026-05-07 11:10 48.71931 12.17536 40001 ft 488 kts 303°
2026-05-07 11:11 48.75070 12.08561 40002 ft 480 kts 285°
2026-05-07 11:11 48.76528 11.98820 40005 ft 477 kts 277°
2026-05-07 11:12 48.77592 11.88894 40011 ft 477 kts 276°
2026-05-07 11:12 48.78606 11.78953 40016 ft 478 kts 276°
2026-05-07 11:13 48.79631 11.69064 40020 ft 478 kts 277°
2026-05-07 11:13 48.80676 11.59102 40019 ft 478 kts 277°
2026-05-07 11:14 48.81710 11.49143 40018 ft 478 kts 276°
2026-05-07 11:14 48.82730 11.39170 40023 ft 478 kts 277°
2026-05-07 11:15 48.83945 11.29250 40014 ft 480 kts 284°
2026-05-07 11:15 48.86375 11.20802 39577 ft 482 kts 300°
2026-05-07 11:16 48.87066 11.19218 39391 ft 482 kts 303°
2026-05-07 11:16 48.88675 11.16198 38924 ft 484 kts 310°
2026-05-07 11:16 48.91055 11.12574 38171 ft 486 kts 313°
2026-05-07 11:16 48.93527 11.09075 37456 ft 485 kts 315°
2026-05-07 11:17 48.96031 11.05636 36751 ft 483 kts 315°
2026-05-07 11:17 48.97687 11.03379 36316 ft 482 kts 315°
2026-05-07 11:17 49.00180 10.99967 35625 ft 481 kts 315°
2026-05-07 11:17 49.02656 10.96545 34913 ft 481 kts 315°
2026-05-07 11:18 49.05932 10.91970 33814 ft 483 kts 315°
2026-05-07 11:18 49.08400 10.88497 32907 ft 482 kts 315°
2026-05-07 11:18 49.10856 10.85031 32043 ft 480 kts 316°
2026-05-07 11:18 49.13301 10.81569 31200 ft 478 kts 316°
2026-05-07 11:19 49.14911 10.79285 30622 ft 477 kts 317°
2026-05-07 11:19 49.17337 10.75840 29624 ft 476 kts 317°
2026-05-07 11:19 49.19756 10.72405 28698 ft 473 kts 317°
2026-05-07 11:19 49.22086 10.68937 28062 ft 463 kts 314°
2026-05-07 11:20 49.25001 10.64268 27239 ft 453 kts 313°
2026-05-07 11:20 49.27163 10.60804 26612 ft 447 kts 314°
2026-05-07 11:20 49.28608 10.58500 26182 ft 443 kts 314°
2026-05-07 11:20 49.31414 10.54042 25376 ft 435 kts 314°
2026-05-07 11:21 49.32803 10.51837 24968 ft 432 kts 314°
2026-05-07 11:21 49.34876 10.48541 24359 ft 427 kts 313°
2026-05-07 11:21 49.36775 10.45074 23809 ft 422 kts 306°
2026-05-07 11:21 49.38501 10.41375 23358 ft 431 kts 305°
2026-05-07 11:22 49.40231 10.37582 22898 ft 434 kts 305°
2026-05-07 11:22 49.41952 10.33798 22453 ft 431 kts 305°
2026-05-07 11:22 49.43663 10.30036 22011 ft 428 kts 305°
2026-05-07 11:22 49.45340 10.26348 21575 ft 425 kts 305°
2026-05-07 11:23 49.47029 10.22630 21162 ft 423 kts 305°
2026-05-07 11:23 49.48706 10.18934 20734 ft 420 kts 305°
2026-05-07 11:23 49.50374 10.15252 20310 ft 418 kts 305°
2026-05-07 11:23 49.52032 10.11588 19885 ft 416 kts 304°
2026-05-07 11:24 49.53676 10.07951 19451 ft 414 kts 304°
2026-05-07 11:24 49.55316 10.04323 19048 ft 413 kts 304°
2026-05-07 11:24 49.56951 10.00693 18638 ft 411 kts 304°
2026-05-07 11:24 49.58576 9.97082 18193 ft 409 kts 304°
2026-05-07 11:25 49.60169 9.93540 17758 ft 406 kts 304°
2026-05-07 11:25 49.61772 9.89965 17316 ft 404 kts 304°
2026-05-07 11:25 49.63362 9.86413 16918 ft 402 kts 304°
2026-05-07 11:25 49.64948 9.82869 16519 ft 399 kts 304°
2026-05-07 11:26 49.66518 9.79353 16110 ft 397 kts 304°
2026-05-07 11:26 49.68078 9.75859 15721 ft 394 kts 304°
2026-05-07 11:26 49.69674 9.72415 15512 ft 394 kts 308°
2026-05-07 11:26 49.71550 9.69429 15504 ft 394 kts 319°
2026-05-07 11:27 49.73862 9.67168 15378 ft 394 kts 334°
2026-05-07 11:27 49.76416 9.65654 15125 ft 394 kts 340°
2026-05-07 11:27 49.79018 9.64314 14884 ft 394 kts 340°
2026-05-07 11:27 49.81622 9.63000 14646 ft 392 kts 340°
2026-05-07 11:28 49.84207 9.61698 14408 ft 390 kts 340°
2026-05-07 11:28 49.86783 9.60399 14166 ft 389 kts 340°
2026-05-07 11:28 49.89354 9.59100 13923 ft 387 kts 340°
2026-05-07 11:28 49.91882 9.57824 13416 ft 378 kts 340°
2026-05-07 11:29 49.94359 9.56570 12809 ft 370 kts 341°
2026-05-07 11:29 49.96749 9.55360 12195 ft 363 kts 341°
2026-05-07 11:29 49.99125 9.54156 11605 ft 356 kts 341°
2026-05-07 11:29 50.01451 9.52977 11200 ft 344 kts 340°
2026-05-07 11:30 50.03662 9.51855 11099 ft 325 kts 341°
2026-05-07 11:30 50.05752 9.50794 10991 ft 307 kts 341°
2026-05-07 11:30 50.07723 9.49791 10874 ft 290 kts 341°
2026-05-07 11:30 50.09587 9.48841 10772 ft 275 kts 341°
2026-05-07 11:31 50.11363 9.47936 10673 ft 263 kts 341°
2026-05-07 11:31 50.13073 9.46997 10566 ft 260 kts 336°
2026-05-07 11:31 50.14584 9.45597 9965 ft 256 kts 320°
2026-05-07 11:31 50.15702 9.43400 9071 ft 268 kts 294°
2026-05-07 11:32 50.16399 9.37615 8169 ft 267 kts 279°
2026-05-07 11:32 50.16613 9.34788 7770 ft 259 kts 277°
2026-05-07 11:32 50.16756 9.32026 7479 ft 253 kts 275°
2026-05-07 11:33 50.16773 9.29337 7379 ft 247 kts 267°
2026-05-07 11:33 50.16545 9.26667 7246 ft 248 kts 263°
2026-05-07 11:33 50.16251 9.24053 7087 ft 248 kts 262°
2026-05-07 11:33 50.15928 9.21416 6820 ft 247 kts 260°
2026-05-07 11:34 50.15770 9.18766 6535 ft 245 kts 273°
2026-05-07 11:34 50.15813 9.16125 6231 ft 244 kts 274°
2026-05-07 11:34 50.15817 9.13483 5943 ft 244 kts 271°
2026-05-07 11:34 50.15757 9.10841 5662 ft 243 kts 268°
2026-05-07 11:35 50.15545 9.08223 5566 ft 244 kts 262°
2026-05-07 11:35 50.15142 9.05662 5478 ft 245 kts 255°
2026-05-07 11:35 50.14582 9.03159 5367 ft 245 kts 251°
2026-05-07 11:35 50.13989 9.00707 5255 ft 244 kts 251°
2026-05-07 11:36 50.13393 8.98237 5148 ft 240 kts 251°
2026-05-07 11:36 50.12829 8.95867 5051 ft 225 kts 252°
2026-05-07 11:36 50.12324 8.93719 5015 ft 197 kts 252°
2026-05-07 11:36 50.11887 8.91815 4953 ft 180 kts 254°
2026-05-07 11:37 50.11472 8.89994 4734 ft 177 kts 252°
2026-05-07 11:37 50.11042 8.88210 4456 ft 175 kts 252°
2026-05-07 11:37 50.10623 8.86454 4204 ft 172 kts 253°
2026-05-07 11:37 50.10213 8.84729 3927 ft 167 kts 253°
2026-05-07 11:38 50.09819 8.83070 3698 ft 164 kts 253°
2026-05-07 11:38 50.09421 8.81401 3474 ft 165 kts 253°
2026-05-07 11:38 50.09024 8.79730 3254 ft 165 kts 253°
2026-05-07 11:38 50.08626 8.78055 3007 ft 165 kts 252°
2026-05-07 11:39 50.08232 8.76397 2804 ft 162 kts 252°
2026-05-07 11:39 50.07840 8.74749 2578 ft 163 kts 252°
2026-05-07 11:39 50.07446 8.73097 2361 ft 162 kts 252°
2026-05-07 11:39 50.07065 8.71499 2134 ft 151 kts 252°
2026-05-07 11:40 50.06714 8.70026 1924 ft 140 kts 253°
2026-05-07 11:40 50.06388 8.68654 1758 ft 133 kts 253°
2026-05-07 11:40 50.06074 8.67333 1579 ft 132 kts 253°
2026-05-07 11:40 50.05755 8.65996 1393 ft 132 kts 253°
2026-05-07 11:41 50.05438 8.64660 1211 ft 131 kts 252°
2026-05-07 11:41 50.05121 8.63331 1032 ft 131 kts 251°
2026-05-07 11:41 50.04800 8.62007 885 ft 130 kts 251°
2026-05-07 11:41 50.04475 8.60696 726 ft 129 kts 253°
2026-05-07 11:42 50.04175 8.59371 500 ft 128 kts 250°
2026-05-07 11:42 50.03857 8.58067 383 ft 128 kts 251°
2026-05-07 11:42 50.03588 8.56920 366 ft 94 kts 250°
2026-05-07 11:42 50.03409 8.56168 361 ft 59 kts 249°
2026-05-07 11:43 50.03264 8.55646 357 ft 38 kts 233°
2026-05-07 11:43 50.03150 8.55469 357 ft 7 kts 219°
2026-05-07 11:43 50.03142 8.55459 359 ft 0 kts 219°
2026-05-07 11:44 50.03141 8.55458 359 ft 1 kts 219°
2026-05-07 11:44 50.03120 8.55432 357 ft 7 kts 218°
2026-05-07 11:44 50.03069 8.55366 356 ft 12 kts 221°
2026-05-07 11:45 50.02998 8.55282 358 ft 13 kts 200°
2026-05-07 11:45 50.02933 8.55332 359 ft 11 kts 98°
2026-05-07 11:45 50.02961 8.55462 360 ft 15 kts 70°
2026-05-07 11:45 50.03000 8.55636 354 ft 19 kts 70°
2026-05-07 11:46 50.03043 8.55817 358 ft 10 kts 69°
2026-05-07 11:46 50.03074 8.55940 359 ft 15 kts 69°
2026-05-07 11:46 50.03114 8.56106 356 ft 17 kts 70°
2026-05-07 11:46 50.03158 8.56291 358 ft 20 kts 69°
2026-05-07 11:47 50.03210 8.56511 361 ft 24 kts 70°
2026-05-07 11:47 50.03266 8.56750 362 ft 18 kts 70°
2026-05-07 11:47 50.03312 8.56942 367 ft 21 kts 70°
2026-05-07 11:47 50.03354 8.57150 367 ft 18 kts 91°
2026-05-07 11:48 50.03307 8.57342 366 ft 21 kts 115°
2026-05-07 11:48 50.03271 8.57447 365 ft 8 kts 137°
2026-05-07 11:48 50.03220 8.57442 368 ft 8 kts 201°
2026-05-07 11:48 50.03191 8.57423 368 ft 1 kts 204°
2026-05-07 11:49 50.03189 8.57421 367 ft 0 kts 204°
2026-05-07 11:51 50.03189 8.57422 367 ft 0 kts 205°